Location: Anciles
(42.5833°N, 0.5167°E)
Time: 20:06:21
(UTC+00:00)

Cosmos 1782 Rocket - Pass Details

Date: 10 December 2019
Orbit: 606 x 632 km, 82.5° (Epoch: 22 January)

Event Time Altitude Azimuth Distance (km) Brightness Sun altitude
Rises 18:17:00 0° 350° (N) 2,884 7.0 -20.0°
Reaches altitude 10° 18:19:14 10° 350° (N) 1,972 6.1 -20.4°
Maximum altitude 18:23:35 80° 264° (W) 622 3.5 -21.1°
Drops below altitude 10° 18:27:54 10° 177° (S) 1,950 6.2 -21.9°
Sets 18:30:06 0° 176° (S) 2,849 7.1 -22.3°
